User: anonymous   Login
Location: Ca�n Batista
(41.4099°N, 1.7752°E)
Time: 10:11:19
(UTC+00:00)
Language:

IRS-1C Rocket - Orbit

View from above orbital plane
View from above orbital plane
View from above satellite
View from above satellite

Ground track
Ground track

The orbit data is extracted from the following two-line orbital elements,

1 23753U 95072C   21137.93536595 -.00000037  00000-0  37109-5 0  9998
2 23753  98.9513 165.9805 0004727  82.1270 278.0446 14.26599419321222
Epoch (UTC): 17 May 2021 22:26:55
Eccentricity: 0.0004727
inclination: 98.9513°
perigee height: 800 km
apogee height: 806 km
right ascension of ascending node: 165.9805°
argument of perigee: 82.1270°
revolutions per day: 14.26599419
mean anomaly at epoch: 278.0446°
orbit number at epoch: 32122

The dashed part of the orbit path shows where the satellite is in the earth's shadow,  

DLR